CW5398 Weather Reports


Display with metric or nautical units.
time (UTC)temp
F
wind
direction
speed
MPH
gust
MPH
rain 1hr
in
rain 24hr
in
rain mn
in
humidity
%
barometer
mb
20260509224037 63 203 1.0 3.0 0.00 0.00 0.00 71 1019.1
20260509223037 64 203 2.0 5.0 0.00 0.00 0.00 73 1019.1
20260509222017 64 203 1.0 5.0 0.00 0.00 0.00 75 1019.3
20260509221017 64 203 2.0 7.0 0.00 0.00 0.00 76 1019.6
20260509220017 64 203 1.0 4.0 0.00 0.00 0.00 75 1019.6
20260509215017 63 203 2.0 8.0 0.00 0.00 0.00 76 1019.7
20260509214017 63 203 2.0 7.0 0.00 0.00 0.00 76 1019.6
20260509213017 64 203 3.0 7.0 0.00 0.00 0.00 75 1019.7
20260509212037 64 203 1.0 6.0 0.00 0.00 0.00 75 1019.8
20260509211017 63 203 0.0 4.0 0.00 0.00 0.00 76 1020.2
20260509210017 61 225 2.0 7.0 0.00 0.00 0.00 78 1020.2
20260509205017 62 225 2.0 5.0 0.00 0.00 0.00 77 1020.3
20260509204017 61 225 4.0 10.0 0.00 0.00 0.00 76 1020.2
20260509203017 62 225 1.0 6.0 0.00 0.00 0.00 81 1020.2
20260509202017 61 203 3.0 7.0 0.00 0.00 0.00 78 1020.1
20260509201017 61 203 1.0 6.0 0.00 0.00 0.00 78 1020.1
20260509200017 62 225 3.0 8.0 0.00 0.00 0.00 77 1020.1
20260509195017 62 248 1.0 6.0 0.00 0.00 0.00 77 1020.4
20260509194017 62 248 1.0 4.0 0.00 0.00 0.00 75 1020.6
20260509193017 62 248 1.0 7.0 0.00 0.00 0.00 77 1020.6
20260509192017 61 225 1.0 5.0 0.00 0.00 0.00 77 1020.7
20260509191037 61 225 1.0 7.0 0.00 0.00 0.00 78 1020.8
20260509190017 61 225 1.0 5.0 0.00 0.00 0.00 78 1020.7
20260509185017 60 225 1.0 7.0 0.00 0.00 0.00 78 1020.7
20260509184016 60 225 1.0 5.0 0.00 0.00 0.00 78 1020.7
20260509183017 61 248 3.0 7.0 0.00 0.00 0.00 77 1020.7
20260509182016 61 248 2.0 6.0 0.00 0.00 0.00 78 1020.8
20260509181037 62 270 2.0 6.0 0.00 0.00 0.00 75 1021.0
20260509180037 61 270 1.0 4.0 0.00 0.00 0.00 77 1020.9
20260509175017 60 270 1.0 5.0 0.00 0.00 0.00 80 1021.0
20260509174037 59 293 1.0 7.0 0.00 0.00 0.00 80 1021.1
20260509173016 59 293 0.0 6.0 0.00 0.00 0.00 81 1021.1
20260509172017 58 293 1.0 4.0 0.00 0.00 0.00 81 1021.0
20260509171016 57 293 0.0 3.0 0.00 0.00 0.00 83 1021.3
20260509170016 56 293 0.0 4.0 0.00 0.00 0.00 84 1021.3
20260509165016 55 293 1.0 5.0 0.00 0.00 0.00 85 1021.3
20260509164016 55 293 0.0 3.0 0.00 0.00 0.00 87 1021.4
20260509163016 55 293 0.0 4.0 0.00 0.00 0.00 87 1021.4
20260509162016 55 293 1.0 4.0 0.00 0.00 0.00 89 1021.5
20260509161036 54 284 0.0 0.0 0.00 0.00 0.00 91 1021.5
20260509160016 53 284 0.0 0.0 0.00 0.00 0.00 94 1021.5
20260509155036 53 293 0.0 3.0 0.00 0.00 0.00 96 1021.8
20260509154017 52 284 0.0 0.0 0.00 0.00 0.00 98 1021.8
20260509153016 51 284 0.0 0.0 0.00 0.00 0.00 100 1021.8
20260509152016 51 284 0.0 0.0 0.00 0.00 0.00 100 1021.8
20260509151016 50 284 0.0 0.0 0.00 0.00 0.00 100 1021.8
20260509150016 49 284 0.0 0.0 0.00 0.00 0.00 100 1021.8
20260509145016 49 284 0.0 0.0 0.00 0.00 0.00 100 1021.9
20260509144017 49 284 0.0 0.0 0.00 0.00 0.00 100 1021.9
20260509143016 48 284 0.0 0.0 0.00 0.00 0.00 100 1021.9
20260509142016 48 284 0.0 0.0 0.00 0.00 0.00 100 1022.1
20260509141016 48 284 0.0 0.0 0.00 0.00 0.00 100 1022.0
20260509140016 48 284 0.0 0.0 0.00 0.00 0.00 100 1022.0
20260509135016 48 284 0.0 0.0 0.00 0.00 0.00 100 1022.3
20260509134016 48 284 0.0 0.0 0.00 0.00 0.00 100 1022.4
20260509133016 47 284 0.0 0.0 0.00 0.00 0.00 100 1022.4
20260509132016 47 284 0.0 0.0 0.00 0.00 0.00 100 1022.0
20260509131016 47 284 0.0 0.0 0.00 0.00 0.00 100 1022.1
20260509130016 47 284 0.0 0.0 0.00 0.00 0.00 100 1022.1
20260509125016 47 284 0.0 0.0 0.00 0.00 0.00 100 1022.0
20260509124016 47 284 0.0 0.0 0.00 0.00 0.00 100 1021.9
20260509123016 47 284 0.0 0.0 0.00 0.00 0.00 100 1021.9
20260509122035 47 284 0.0 0.0 0.00 0.00 0.00 100 1022.2
20260509121016 47 284 0.0 0.0 0.00 0.00 0.00 100 1022.3
20260509120015 47 284 0.0 0.0 0.00 0.00 0.00 100 1022.3
20260509115036 47 284 0.0 0.0 0.00 0.00 0.00 100 1022.3
20260509114035 47 284 0.0 0.0 0.00 0.00 0.00 100 1022.3
20260509113015 47 284 0.0 0.0 0.00 0.00 0.00 100 1022.3
20260509112016 47 284 0.0 0.0 0.00 0.00 0.00 100 1022.3
20260509111016 47 284 0.0 0.0 0.00 0.00 0.00 100 1022.3
20260509110035 47 284 0.0 0.0 0.00 0.00 0.00 100 1022.3
20260509105016 47 284 0.0 0.0 0.00 0.00 0.00 100 1022.0
20260509104016 47 284 0.0 0.0 0.00 0.00 0.00 100 1022.2
20260509103015 47 284 0.0 0.0 0.00 0.00 0.00 100 1022.2
20260509102016 47 284 0.0 0.0 0.00 0.00 0.00 100 1022.1
20260509101016 47 284 0.0 0.0 0.00 0.00 0.00 100 1022.0
20260509100016 47 284 0.0 0.0 0.00 0.00 0.00 100 1022.0
20260509095015 47 284 0.0 0.0 0.00 0.00 0.00 100 1022.1
20260509094015 47 284 0.0 0.0 0.00 0.00 0.00 100 1022.1
20260509093015 47 284 0.0 0.0 0.00 0.00 0.00 100 1022.1
20260509092015 47 284 0.0 0.0 0.00 0.00 0.00 100 1022.2
20260509091017 46 284 0.0 0.0 0.00 0.00 0.00 100 1022.2
20260509090037 46 284 0.0 0.0 0.00 0.00 0.00 100 1022.2
20260509085037 46 284 0.0 0.0 0.00 0.00 0.00 100 1022.3
20260509084017 46 284 0.0 0.0 0.00 0.00 0.00 100 1022.4
20260509083017 46 284 0.0 0.0 0.00 0.00 0.00 100 1022.4
20260509082017 45 284 0.0 0.0 0.00 0.00 0.00 100 1022.4
20260509081017 45 284 0.0 0.0 0.00 0.00 0.00 100 1022.5
20260509080017 45 284 0.0 0.0 0.00 0.00 0.00 100 1022.5
20260509075017 45 284 0.0 0.0 0.00 0.00 0.00 100 1022.4
20260509074017 45 284 0.0 0.0 0.00 0.00 0.00 100 1022.4
20260509073017 44 284 0.0 0.0 0.00 0.00 0.00 100 1022.4
20260509072017 45 284 0.0 0.0 0.00 0.00 0.00 100 1022.3
20260509071017 45 284 0.0 0.0 0.00 0.00 0.00 100 1022.2
20260509070017 45 284 0.0 0.0 0.00 0.00 0.00 100 1022.2
20260509065037 45 284 0.0 0.0 0.00 0.00 0.00 100 1022.2
20260509064017 45 284 0.0 0.0 0.00 0.00 0.00 100 1022.2
20260509063056 45 284 0.0 0.0 0.00 0.00 0.00 100 1022.2
20260509062017 45 284 0.0 0.0 0.00 0.00 0.00 100 1022.2
20260509061036 46 284 0.0 0.0 0.00 0.00 0.00 100 1022.2
20260509060016 46 284 0.0 0.0 0.00 0.00 0.00 99 1022.2
20260509055017 46 284 0.0 0.0 0.00 0.00 0.00 98 1022.2
20260509054017 47 284 0.0 0.0 0.00 0.00 0.00 98 1022.2
20260509053057 47 284 0.0 0.0 0.00 0.00 0.00 98 1022.2
20260509052016 47 284 0.0 0.0 0.00 0.00 0.00 97 1022.2
20260509051016 48 284 0.0 0.0 0.00 0.00 0.00 97 1022.3
20260509050016 48 284 0.0 0.0 0.00 0.00 0.00 96 1022.3
20260509045017 49 284 0.0 0.0 0.00 0.00 0.00 95 1022.2
20260509044016 50 284 0.0 0.0 0.00 0.00 0.00 94 1022.1
20260509043037 50 284 0.0 0.0 0.00 0.00 0.00 93 1022.1
20260509042017 51 284 0.0 0.0 0.00 0.00 0.00 92 1022.0
20260509041017 52 284 0.0 0.0 0.00 0.00 0.00 91 1021.9
20260509040017 52 284 0.0 0.0 0.00 0.00 0.00 90 1021.9
20260509035016 53 284 0.0 0.0 0.00 0.00 0.00 89 1021.8
20260509034016 53 284 0.0 0.0 0.00 0.00 0.00 87 1021.8
20260509033017 54 284 0.0 0.0 0.00 0.00 0.00 87 1021.8
20260509032016 54 284 0.0 0.0 0.00 0.00 0.00 84 1021.8
20260509031016 55 293 0.0 2.0 0.00 0.00 0.00 82 1021.7
20260509030016 55 284 0.0 0.0 0.00 0.00 0.00 82 1021.7
20260509025017 55 284 0.0 0.0 0.00 0.00 0.00 81 1021.6
20260509024016 55 293 0.0 1.0 0.00 0.00 0.00 80 1021.4
20260509023016 56 284 0.0 0.0 0.00 0.00 0.00 79 1021.4
20260509022017 56 293 0.0 1.0 0.00 0.00 0.00 78 1021.3
20260509021016 56 284 0.0 0.0 0.00 0.00 0.00 79 1021.3
20260509020036 56 293 0.0 1.0 0.00 0.00 0.00 77 1021.3
20260509015016 57 293 1.0 3.0 0.00 0.00 0.00 77 1021.3
20260509014036 57 293 0.0 1.0 0.00 0.00 0.00 77 1021.3
20260509013016 57 293 1.0 4.0 0.00 0.00 0.00 78 1021.3
20260509012016 57 293 1.0 4.0 0.00 0.00 0.00 77 1021.3
20260509011016 57 284 0.0 0.0 0.00 0.00 0.00 77 1021.3
20260509010036 58 284 0.0 0.0 0.00 0.00 0.00 77 1021.4
20260509005016 58 284 0.0 0.0 0.00 0.00 0.00 79 1021.4
20260509004016 57 293 0.0 3.0 0.00 0.00 0.00 81 1021.3
20260509003016 57 293 0.0 1.0 0.00 0.00 0.00 79 1021.3
20260509002016 57 293 1.0 3.0 0.00 0.00 0.00 79 1021.3
20260509001016 57 293 0.0 1.0 0.00 0.00 0.00 79 1021.4
20260509000016 57 293 0.0 2.0 0.00 0.00 0.00 79 1021.4
20260508235016 57 293 0.0 1.0 0.00 0.00 0.00 78 1021.3
20260508234035 57 293 1.0 3.0 0.00 0.00 0.00 80 1021.3
20260508233015 57 293 1.0 3.0 0.00 0.00 0.00 80 1021.3
20260508232016 57 293 0.0 1.0 0.00 0.00 0.00 80 1021.2
20260508231036 56 293 0.0 1.0 0.00 0.00 0.00 81 1021.2
20260508230015 56 284 0.0 0.0 0.00 0.00 0.00 81 1021.2
20260508225015 56 293 1.0 3.0 0.00 0.00 0.00 82 1021.1